Weather History for Columbia Owens, SC

Change the Weather History Date:

Thursday, October 18, 2012

  Actual Average Record
Temperature  
Mean Temperature 69 °F 64 °F  
Max Temperature 82 °F 75 °F 87 °F (2007)
Min Temperature 55 °F 53 °F 42 °F (2001)
Degree Days  
Heating Degree Days 0 3  
Month to date heating degree days 34 29  
Since 1 July heating degree days 34 32  
Cooling Degree Days 4 2  
Month to date cooling degree days 82 75  
Year to date cooling degree days 2496 2222  
Growing Degree Days 18 (Base 50)    
Moisture  
Dew Point 58 °F    
Average Humidity 76    
Maximum Humidity 93    
Minimum Humidity 51    
Precipitation  
Precipitation T in 0.12 in 0.77 in (2011)
Month to date precipitation 0.95 2.06  
Year to date precipitation 37.78 37.95  
Sea Level Pressure  
Sea Level Pressure 29.85 in    
Wind  
Wind Speed 2 mph (South)    
Max Wind Speed 10 mph    
Max Gust Speed 14 mph    
Visibility 10 miles    
Events      
T = Trace of Precipitation, MM = Missing Value Source: NWS Daily Summary

Daily Weather History Graph

Daily Weather History Graph

Search for Another Location

Airport:

Trip Planner

Search our weather history database for the weather conditions in past years. The results will help you decide how hot, cold, wet, or windy it might be!

Date:

Astronomy

Oct. 18, 2012 Rise Set
Actual Time 7:31 AM EDT 6:45 PM EDT
Civil Twilight 7:06 AM EDT 7:10 PM EDT
Nautical Twilight 6:37 AM EDT 7:40 PM EDT
Astronomical Twilight 6:08 AM EDT 8:08 PM EDT
Moon 11:02 AM EDT (10/18) 9:28 PM EDT (10/18)
Length of Visible Light 12h 04m
Length of Day
11h 13m
Waxing Crescent, 14% of the Moon is Illuminated
Oct 18
Waxing Crescent
Oct 21
First Quarter
Oct 29
Full
Nov 6
Last Quarter
Nov 13
New

Hourly Weather History & Observations

Time (EDT) Temp. Heat Index Dew Point Humidity Pressure Visibility Wind Dir Wind Speed Gust Speed Precip Events Conditions
12:53 AM 55.9 °F - 52.0 °F 87% 29.91 in 10.0 mi Calm Calm - N/A   Clear
1:53 AM 55.9 °F - 53.1 °F 90% 29.90 in 10.0 mi Calm Calm - N/A   Scattered Clouds
2:53 AM 55.9 °F - 53.1 °F 90% 29.90 in 10.0 mi Calm Calm - N/A   Mostly Cloudy
3:53 AM 57.0 °F - 54.0 °F 89% 29.89 in 10.0 mi Calm Calm - N/A   Overcast
4:53 AM 57.0 °F - 55.0 °F 93% 29.88 in 10.0 mi Calm Calm - N/A   Scattered Clouds
5:53 AM 57.9 °F - 55.0 °F 90% 29.90 in 10.0 mi Calm Calm - N/A   Overcast
6:50 AM 57.2 °F - 53.6 °F 88% 29.90 in 10.0 mi Calm Calm - N/A   Mostly Cloudy
6:53 AM 57.9 °F - 54.0 °F 87% 29.89 in 10.0 mi Calm Calm - N/A   Mostly Cloudy
7:53 AM 57.9 °F - 55.0 °F 90% 29.90 in 10.0 mi Calm Calm - N/A   Clear
8:53 AM 61.0 °F - 55.9 °F 83% 29.91 in 9.0 mi Calm Calm - N/A   Clear
9:53 AM 64.9 °F - 57.9 °F 78% 29.91 in 10.0 mi Calm Calm - N/A   Mostly Cloudy
10:53 AM 66.0 °F - 60.1 °F 81% 29.88 in 10.0 mi Variable 4.6 mph - N/A   Clear
11:53 AM 72.0 °F - 62.1 °F 71% 29.87 in 10.0 mi South 5.8 mph - N/A   Clear
12:53 PM 75.0 °F - 64.0 °F 69% 29.85 in 10.0 mi Variable 4.6 mph - N/A   Clear
1:53 PM 78.1 °F - 63.0 °F 60% 29.82 in 10.0 mi South 8.1 mph - N/A   Partly Cloudy
2:53 PM 80.1 °F 81.1 °F 61.0 °F 52% 29.80 in 10.0 mi WSW 5.8 mph - N/A   Mostly Cloudy
3:53 PM 80.1 °F 81.1 °F 61.0 °F 52% 29.79 in 10.0 mi Variable 3.5 mph - N/A   Mostly Cloudy
4:53 PM 80.1 °F 80.9 °F 60.1 °F 50% 29.79 in 10.0 mi South 6.9 mph - N/A   Mostly Cloudy
5:53 PM 80.1 °F 81.1 °F 61.0 °F 52% 29.78 in 10.0 mi South 6.9 mph - N/A   Mostly Cloudy
6:53 PM 75.9 °F - 61.0 °F 60% 29.80 in 10.0 mi South 4.6 mph - N/A   Overcast
7:53 PM 73.0 °F - 62.1 °F 68% 29.80 in 10.0 mi Calm Calm - N/A   Mostly Cloudy
8:53 PM 70.0 °F - 62.1 °F 76% 29.81 in 10.0 mi South 3.5 mph - N/A   Partly Cloudy
9:53 PM 68.0 °F - 62.1 °F 81% 29.81 in 10.0 mi Calm Calm - N/A   Scattered Clouds
10:53 PM 68.0 °F - 61.0 °F 78% 29.81 in 10.0 mi Calm Calm - N/A   Overcast
11:53 PM 68.0 °F - 62.1 °F 81% 29.80 in 10.0 mi Calm Calm - N/A   Overcast